Location: Lombard
(41.8800°N, 88.0080°W)
Time: 00:20:01
(UTC-05:00)

Gurwin Techsat 1B - Pass Details

Date: 19 May 2022
Orbit: 811 x 814 km, 98.8° (Epoch: 27 June)

Event Time Altitude Azimuth Distance (km) Brightness Sun altitude
Rises 01:53:23 0° 35° (NE) 3,342 12.9 -26.5°
Reaches altitude 10° 01:57:22 10° 65° (ENE) 2,403 11.6 -26.3°
Maximum altitude 01:59:29 12° 89° (E) 2,239 11.1 -26.2°
Drops below altitude 10° 02:01:34 10° 113° (ESE) 2,395 11.0 -26.1°
Enters shadow 02:02:07 - 118° (ESE) 2,484 11.0 -26.0°
